• Join FlightAware (Why Join?)
  • Login
  • US Flag GB Flag 
01:23 EDT


 

Airport Tracker/Info


-or-


 

Live Flight TrackerFlight Track Log ✈ SWA104 ✈ 30-Apr-2013 ✈ KMHT - KBWI

Flight Track Log - Related Links

Times and Time Zones

All times are in EDT time to prevent confusion due to time zone crossing. See the SWA104 flight status page for this flight to view local times or setup timezone preferences in your user account.

Time Position Orientation Groundspeed Altitude Reporting Facility
EDT Latitude Longitude Course Direction KTS MPH feet Rate Location/Type
21:16 42.9167 -71.4333 199° South 139 160 1,400  Level KA90
21:17 42.8733 -71.4542 199° South 199 229 4,000 3,060 Climbing Boston Center
21:18 42.8667 -71.3978 99° East 237 273 7,700 3,600 Climbing Boston Center
21:19 42.9158 -71.3203 49° Northeast 192 221 12,000 3,960 Climbing Boston Center
21:20 42.9486 -71.2458 59° Northeast 215 247 16,500 3,360 Climbing Boston Center
21:21 42.8708 -71.1964 155° Southeast 234 269 18,800 2,640 Climbing Boston Center
21:22 42.7811 -71.1869 176° South 265 305 21,800 3,060 Climbing Boston Center
21:23 42.6686 -71.1808 178° South 346 398 25,000 3,000 Climbing Boston Center
21:24 42.5536 -71.1661 175° South 393 452 27,800 1,500 Climbing Boston Center
21:25 42.4353 -71.1883 188° South 417 480 28,000 60 Climbing Boston Center
21:26 42.3719 -71.3244 238° Southwest 388 447 28,000 -60 Level Boston Center
21:27 42.3314 -71.4517 247° West 411 473 27,900  Descending Boston Center
21:28 42.2683 -71.6406 246° West 444 511 28,000 900 Climbing Boston Center
21:29 42.2194 -71.7953 247° West 454 522 29,800 2,280 Climbing Boston Center
21:30 42.1742 -71.9469 248° West 454 522 32,600 2,100 Climbing Boston Center
21:31 42.1269 -72.1014 248° West 454 522 34,000 660 Climbing Boston Center
21:32 42.0772 -72.2611 247° West 459 528 34,000  Level Boston Center
21:33 42.0272 -72.4206 247° West 459 528 34,000  Level Boston Center
21:34 41.9753 -72.5742 246° West 459 528 34,000 -60 Level Boston Center
21:35 41.9122 -72.7331 242° Southwest 448 516 33,900 -60 Descending Boston Center
21:36 41.8222 -72.8525 225° Southwest 451 519 33,900  Level Boston Center
21:37 41.7364 -72.9686 225° Southwest 470 541 34,000  Climbing Boston Center
21:39 41.5569 -73.2136 226° Southwest 469 540 33,900 -60 Descending New York Center
21:40 41.4692 -73.3350 226° Southwest 464 534 33,900  Level New York Center
21:41 41.3769 -73.4558 225° Southwest 464 534 33,900  Level New York Center
21:42 41.2844 -73.5819 226° Southwest 470 541 33,900  Level New York Center
21:43 41.2061 -73.7136 232° Southwest 470 541 34,000  Climbing New York Center
21:44 41.1256 -73.8478 231° Southwest 470 541 33,900 -60 Descending New York Center
21:45 41.0450 -73.9817 231° Southwest 470 541 33,900  Level New York Center
21:46 40.9664 -74.1153 232° Southwest 470 541 33,900 -1,380 Level New York Center
21:47 40.8769 -74.2564 230° Southwest 470 541 31,300 -2,880 Descending New York Center
21:48 40.8000 -74.3842 232° Southwest 464 534 28,300 -1,680 Descending New York Center
21:49 40.7275 -74.5061 232° Southwest 449 517 27,900 -240 Descending New York Center
21:50 40.6528 -74.6278 231° Southwest 437 503 27,900  Level New York Center
21:51 40.5803 -74.7442 231° Southwest 432 497 28,000 -60 Climbing New York Center
21:52 40.4989 -74.8622 228° Southwest 432 497 27,800 -600 Descending New York Center
21:53 40.4200 -74.9747 227° Southwest 438 504 26,800 -1,440 Descending New York Center
21:54 40.3389 -75.0869 227° Southwest 433 498 24,900 -2,220 Descending New York Center
21:55 40.2639 -75.1964 228° Southwest 422 486 22,300 -2,640 Descending New York Center
21:56 40.1892 -75.2978 226° Southwest 411 473 19,800 -2,220 Descending New York Center
21:57 40.1144 -75.3986 226° Southwest 400 460 18,000 -900 Descending New York Center
21:58 40.0503 -75.4892 227° Southwest 381 438 18,000  Level New York Center
21:59 39.9689 -75.5975 226° Southwest 381 438 18,000 -120 Level New York Center
22:00 39.9067 -75.6933 230° Southwest 387 445 17,800 -1,200 Descending New York Center
22:02 39.7833 -75.9333 236° Southwest 383 441 14,500 -1,680 Descending Potomac TRACON
22:03 39.7167 -76.0500 233° Southwest 373 429 12,800 -1,740 Descending Potomac TRACON
22:04 39.6667 -76.1667 241° Southwest 362 417 11,100 -1,740 Descending Potomac TRACON
22:05 39.6167 -76.2667 237° Southwest 354 407 9,500 -1,260 Descending Potomac TRACON
22:06 39.5667 -76.3667 237° Southwest 302 348 8,600 -1,260 Descending Potomac TRACON
22:07 39.5167 -76.4667 237° Southwest 282 325 6,800 -1,620 Descending Potomac TRACON
22:08 39.4833 -76.5500 243° Southwest 284 327 5,200 -1,500 Descending Potomac TRACON
22:09 39.4500 -76.6333 243° Southwest 275 316 4,000 -660 Descending Potomac TRACON
22:10 39.4000 -76.7000 226° Southwest 267 307 4,000 -540 Level Potomac TRACON
22:12 39.2707 -76.6817 174° South  Level Estimated
22:12 39.3000 -76.7667 174° South 223 257 2,500  Level Potomac TRACON
22:13 39.2500 -76.7667 180° South 168 193 2,500 -300 Level Potomac TRACON
22:14 39.2000 -76.7667 180° South 152 175 2,000 -720 Descending Potomac TRACON
22:15 39.1833 -76.7500 142° Southeast 119 137 1,100 -660 Descending Potomac TRACON
22:16 39.1833 -76.7167 90° East 107 123 700 -480 Descending Potomac TRACON
22:18 39.1667 -76.6667 270° West  Level FlightAware Approximate
22:25 39.1754 -76.6683 270° West  Level Estimated
22:26 39.1754 -76.6683 270° West  Level Estimated
22:27 39.1754 -76.6683 270° West  Level Estimated
22:28 39.1754 -76.6683 270° West  Level Estimated